Nashville, TN

10:08 PM CDT on September 28, 2016 (GMT -0500)
Nashville International

Weather History for KBNA - September, 2011

Change the Weather History Date:

Sunday, September 25, 2011

  Actual Average Record
Temperature  
Mean Temperature 70 °F 68 °F  
Max Temperature 81 °F 79 °F 95 °F (1931)
Min Temperature 59 °F 57 °F 41 °F (1965)
Degree Days  
Heating Degree Days 0    
Month to date heating degree days 25  
Since 1 July heating degree days 25  
Cooling Degree Days 5    
Month to date cooling degree days 152  
Year to date cooling degree days 1884  
Growing Degree Days 20 (Base 50)    
Moisture  
Dew Point 59 °F    
Average Humidity 68    
Maximum Humidity 90    
Minimum Humidity 46    
Precipitation  
Precipitation T in 0.12 in 1.98 in (1926)
Month to date precipitation 5.90 2.81  
Year to date precipitation 40.51 35.06  
Snow  
Snow 0.00 in - 0.00 in (2002)
Month to date snowfall 0.0  
Since 1 July snowfall 0.0  
Since 1 September snowfall 0.0  
Snow Depth 0.00 in    
Sea Level Pressure  
Sea Level Pressure 29.85 in    
Wind  
Wind Speed 10 mph (SSE)    
Max Wind Speed 24 mph    
Max Gust Speed 30 mph    
Visibility 10 miles    
Events      
T = Trace of Precipitation, MM = Missing Value Source: NWS Daily Summary

Daily Weather History Graph

Daily Weather History Graph

Search for Another Location

Airport or City:

Trip Planner

Search our weather history database for the weather conditions in past years. The results will help you decide how hot, cold, wet, or windy it might be!

Date:

Astronomy

Sep. 25, 2011 Rise Set
Actual Time 6:36 AM CDT 6:39 PM CDT
Civil Twilight 6:11 AM CDT 7:05 PM CDT
Nautical Twilight 5:41 AM CDT 7:34 PM CDT
Astronomical Twilight 5:11 AM CDT 8:05 PM CDT
Moon 4:26 AM CDT (9/25) 5:18 PM CDT (9/25)
Length of Visible Light 12h 53m
Length of Day
12h 02m
Waning Crescent, 5% of the Moon is Illuminated
Sep 25
Waning Crescent
Sep 27
New
Oct 3
First Quarter
Oct 11
Full
Oct 19
Last Quarter

Hourly Weather History & Observations

Time (CDT) Temp. Heat Index Dew Point Humidity Pressure Visibility Wind Dir Wind Speed Gust Speed Precip Events Conditions
12:53 AM 61.0 °F - 57.0 °F 87% 29.94 in 10.0 mi South 3.5 mph - N/A   Overcast
1:53 AM 62.1 °F - 55.9 °F 80% 29.94 in 10.0 mi ENE 3.5 mph - N/A   Overcast
2:53 AM 62.1 °F - 57.0 °F 84% 29.91 in 10.0 mi East 4.6 mph - N/A   Overcast
3:53 AM 61.0 °F - 57.0 °F 87% 29.90 in 10.0 mi ESE 4.6 mph - N/A   Mostly Cloudy
4:53 AM 61.0 °F - 55.9 °F 83% 29.91 in 10.0 mi ESE 5.8 mph - N/A   Overcast
5:53 AM 59.0 °F - 55.0 °F 87% 29.92 in 10.0 mi Calm Calm - N/A   Mostly Cloudy
6:53 AM 60.1 °F - 55.0 °F 83% 29.93 in 10.0 mi East 4.6 mph - N/A   Mostly Cloudy
7:53 AM 60.1 °F - 55.0 °F 83% 29.94 in 10.0 mi SE 3.5 mph - N/A   Mostly Cloudy
8:53 AM 64.4 °F - 55.4 °F 73% 29.96 in 10.0 mi SE 5.8 mph - N/A   Mostly Cloudy
9:53 AM 66.0 °F - 55.9 °F 70% 29.95 in 10.0 mi SE 4.6 mph - N/A   Mostly Cloudy
10:53 AM 71.1 °F - 55.9 °F 59% 29.93 in 10.0 mi SSE 6.9 mph - N/A   Mostly Cloudy
11:53 AM 75.2 °F - 53.6 °F 47% 29.93 in 10.0 mi SSW 9.2 mph 17.3 mph N/A   Scattered Clouds
12:53 PM 78.1 °F - 57.0 °F 48% 29.90 in 10.0 mi SSW 9.2 mph - N/A   Scattered Clouds
2:53 PM 78.1 °F - 61.0 °F 56% 29.80 in 10.0 mi SSE 11.5 mph - N/A   Mostly Cloudy
3:53 PM 80.1 °F 81.5 °F 63.0 °F 56% 29.76 in 10.0 mi SE 13.8 mph 24.2 mph N/A   Scattered Clouds
4:53 PM 80.1 °F 81.1 °F 61.0 °F 52% 29.74 in 10.0 mi South 15.0 mph 26.5 mph N/A   Scattered Clouds
5:53 PM 78.8 °F - 60.8 °F 54% 29.74 in 10.0 mi South 13.8 mph 23.0 mph N/A   Mostly Cloudy
6:53 PM 77.0 °F - 62.1 °F 60% 29.71 in 10.0 mi South 13.8 mph - N/A   Mostly Cloudy
7:53 PM 75.9 °F - 63.0 °F 64% 29.70 in 10.0 mi SSE 16.1 mph 21.9 mph N/A   Mostly Cloudy
8:53 PM 75.9 °F - 63.0 °F 64% 29.72 in 10.0 mi South 15.0 mph 24.2 mph N/A   Overcast
9:53 PM 75.0 °F - 63.0 °F 66% 29.74 in 10.0 mi South 18.4 mph 24.2 mph N/A   Overcast
10:53 PM 75.9 °F - 63.0 °F 64% 29.75 in 10.0 mi South 15.0 mph - 0.00 in   Overcast
11:53 PM 75.9 °F - 62.1 °F 62% 29.74 in 10.0 mi SSW 16.1 mph 21.9 mph N/A   Overcast